#timestamp,LO_Frequency,Hit 
1505372415.7,286046994.5,N
1505372435.6,286046994.5,N
1505372455.4,286046992.8,N
1505372475.2,286046994.3,N
1505372495.1,286046993.3,N
1505372496.0,286046993.3,N
1505372515.8,286046993.7,N
1505372535.6,286046996.2,N
1505372555.5,286046992.6,P
1505372575.3,286046997.5,N
1505372595.1,286046995.5,N
1505372615.9,286046999.2,N
1505372635.7,286046999.7,N
1505372655.5,286047001.6,N
1505372675.4,286047002.3,N
1505372695.2,286046999.9,N
1505372715.0,286046999.9,N
1505372715.9,286046999.9,N
1505372735.8,286047003.8,N
1505372755.6,286047001.4,N
1505372775.4,286047002.8,N
1505372795.3,286047003.5,N
1505372815.1,286047005.4,N
1505372816.0,286047005.4,N
1505372835.8,286047003.6,N
1505372855.7,286047001.2,N
1505372875.5,286047000.6,N
1505372895.3,286047000.4,N
1505372915.1,286046998.1,N
1505372935.9,286046996.6,N
1505372955.7,286047000.5,N
1505372975.5,286047000.1,N
1505372995.4,286047000.2,N
1505373015.2,286046998.2,N
1505373035.0,286047002.6,N
1505373035.9,286047002.6,N
1505373055.8,286047001.9,N
1505373075.6,286047002.2,N
1505373095.4,286047002.4,N
1505373115.3,286047002.7,N
1505373135.1,286047002.7,N
1505373136.0,286047002.7,N
1505373155.8,286047007.2,P
1505373175.7,286047002.2,N
1505373195.5,286047001.0,N
1505373215.3,286047000.3,N
1505373235.2,286047004.4,N
1505373255.9,286047004.2,N
1505373275.7,286047002.2,N
1505373295.6,286047003.6,N
1505373315.4,286047002.0,N
1505373335.2,286047000.3,N
1505373355.0,286047005.8,N
1505373356.0,286047005.8,N
1505373375.8,286047003.6,N
1505373395.6,286047003.2,N
1505373415.4,286047001.4,N
1505373435.3,286047001.3,N
1505373455.1,286047002.5,N
1505373475.8,286047001.8,N
1505373495.7,286047003.6,N
1505373515.5,286047004.3,N
1505373535.3,286047004.3,N
1505373555.2,286047001.5,N
1505373575.9,286047003.8,N
1505373595.7,286047004.9,N
1505373615.6,286047003.8,N
1505373635.4,286046999.9,N
1505373655.2,286047001.2,N
1505373675.1,286046999.1,N
1505373676.0,286046999.1,N
1505373695.8,286046995.4,N
1505373715.6,286047000.5,N
1505373735.4,286047002.4,N
1505373755.3,286046999.8,N
1505373775.1,286046998.7,N
1505373795.8,286046999.3,N
1505373815.7,286047002.1,N
1505373835.5,286046996.9,N
1505373855.3,286046999.0,N
1505373875.2,286046998.1,N
1505373895.9,286047002.5,N
1505373915.7,286046999.3,N
1505373935.6,286046995.3,N
1505373955.4,286046993.7,N
1505373975.2,286046998.0,N
1505373995.1,286046998.0,N
1505373996.0,286046998.0,N
1505374015.8,286046998.6,N
1505374035.6,286046995.1,N
1505374055.5,286046995.1,N
1505374075.3,286046995.4,N
1505374095.1,286046997.3,N
1505374115.8,286046997.9,N
1505374135.7,286046990.2,P
1505374155.5,286046996.3,N
1505374175.4,286046995.5,N
1505374195.2,286046992.1,N
1505374215.0,286046992.0,N
1505374215.9,286046992.0,N
1505374235.8,286046993.6,N
1505374255.6,286046995.6,N
1505374275.4,286046995.8,N
1505374295.2,286047000.7,N
1505374315.1,286046998.8,N
1505374316.0,286046998.8,N
1505374335.8,286047000.3,N
1505374355.6,286047001.2,N
1505374375.5,286046999.7,N
1505374395.3,286046999.1,N
1505374415.1,286046998.2,N
1505374435.9,286046997.4,N
1505374455.7,286046996.8,N
1505374475.5,286046999.0,N
1505374495.4,286047000.4,N
1505374515.2,286046999.3,N
1505374535.0,286046996.7,N
1505374535.9,286046996.7,N
1505374555.8,286047000.8,N
1505374575.6,286046998.8,N
1505374595.4,286046993.4,N
1505374615.3,286046995.6,N
1505374635.1,286046995.7,N
1505374636.0,286046995.7,N
1505374655.8,286046993.4,N
1505374675.7,286046991.9,N
1505374695.5,286046996.0,N
1505374715.3,286046994.4,N
1505374735.2,286046992.4,N
1505374755.9,286046994.5,N
1505374775.7,286046993.6,N
1505374795.5,286046993.5,N
1505374815.4,286046993.0,N
1505374835.2,286046992.0,N
1505374855.1,286046991.4,P
1505374856.0,286046991.4,P
1505374875.8,286046990.5,P
1505374895.6,286046994.0,N
1505374915.5,286046993.7,N
1505374935.3,286046991.7,P
1505374955.1,286046996.6,P
1505374975.9,286046996.5,N
1505374995.7,286046997.3,N
1505375015.5,286047000.6,N
1505375035.4,286046993.8,N
1505375055.2,286046993.6,N
1505375075.0,286046997.0,N
1505375075.9,286046997.0,N
1505375095.8,286046997.4,N
1505375115.6,286046999.1,N
1505375135.4,286046999.3,N
1505375155.3,286047000.9,N
1505375175.1,286047000.5,N
1505375176.0,286047000.5,N
1505375195.8,286047002.0,N
1505375215.7,286047001.7,N
1505375235.5,286047002.8,N
1505375255.3,286046999.9,N
1505375275.2,286046998.1,N
1505375295.9,286047003.0,N
1505375315.7,286047007.3,N
1505375335.6,286047005.0,N
1505375355.4,286047007.2,N
1505375375.2,286047005.3,N
1505375395.0,286047004.1,N
1505375396.0,286047004.1,N
1505375415.8,286047003.9,N
1505375435.6,286047001.7,N
1505375455.4,286047004.1,N
1505375475.3,286047005.7,N
1505375495.1,286047002.6,N
1505375515.8,286047002.6,N
1505375535.7,286047000.0,N
1505375555.5,286047004.1,N
1505375575.3,286046999.6,N
1505375595.2,286046999.6,N
1505375615.9,286046998.2,N
1505375635.7,286047001.9,N
1505375655.6,286047004.4,N
1505375675.4,286047000.5,N
1505375695.2,286046999.8,N
1505375715.1,286047001.0,N
1505375716.0,286047001.0,N
1505375735.8,286046997.1,N
1505375755.6,286046997.1,N
1505375775.5,286046998.7,N
1505375795.3,286046997.0,N
1505375815.1,286046999.0,N
1505375835.9,286047001.0,N
1505375855.7,286047002.4,N
1505375875.5,286047000.6,N
1505375895.4,286046999.6,N
1505375915.2,286047001.2,N
1505375935.0,286047001.6,N
1505375935.9,286047001.6,N
1505375955.7,286046999.7,N
1505375975.6,286047005.5,N
1505375995.4,286047001.4,N
